Millington, TN

12:23 AM CDT on October 16, 2019 (GMT -0500)
Millington Municipal

Weather History for KNQA - September, 2019

Change the Weather History Date:

Sunday, September 22, 2019

  Actual Average Record
Temperature  
Mean Temperature 78 °F -  
Max Temperature 89 °F 81 °F 96 °F (2005)
Min Temperature 66 °F 60 °F 52 °F (1999)
Cooling Degree Days 12    
Growing Degree Days 28 (Base 50)    
Moisture  
Dew Point 63 °F    
Average Humidity 69    
Maximum Humidity 83    
Minimum Humidity 43    
Precipitation  
Precipitation 0.00 in - - ()
Sea Level Pressure  
Sea Level Pressure 30.07 in    
Wind  
Wind Speed 4 mph (SSE)    
Max Wind Speed 16 mph    
Max Gust Speed 21 mph    
Visibility 10 miles    
Events      
Averages and records for this station are not official NWS values.
T = Trace of Precipitation, MM = Missing Value Source: NWS Daily Summary

Daily Weather History Graph

Daily Weather History Graph

Search for Another Location

Airport or City:

Astronomy

Sep. 22, 2019 Rise Set
Actual Time 6:47 AM CDT 6:56 PM CDT
Civil Twilight 6:21 AM CDT 7:21 PM CDT
Nautical Twilight 5:52 AM CDT 7:51 PM CDT
Astronomical Twilight 5:22 AM CDT 8:21 PM CDT
Moon No Moon Rise 2:38 PM CDT (9/22)
Length of Visible Light 13h 00m
Length of Day
12h 09m
Last Quarter, 44% of the Moon is Illuminated
Sep 22
Last Quarter
Sep 28
New
Oct 5
First Quarter
Oct 13
Full
Oct 21
Last Quarter

Hourly Weather History & Observations

Time (CDT) Temp. Heat Index Dew Point Humidity Pressure Visibility Wind Dir Wind Speed Gust Speed Precip Events Conditions
12:15 AM 69.8 °F - 60.8 °F 73% 30.11 in 10.0 mi Calm Calm - N/A   Clear
12:35 AM 68.0 °F - 60.8 °F 78% 30.10 in 10.0 mi Calm Calm - N/A   Clear
12:55 AM 69.8 °F - 60.8 °F 73% 30.10 in 10.0 mi ESE 3.5 mph - N/A   Clear
1:15 AM 68.0 °F - 60.8 °F 78% 30.10 in 10.0 mi ESE 3.5 mph - N/A   Clear
1:35 AM 68.0 °F - 60.8 °F 78% 30.11 in 10.0 mi Calm Calm - N/A   Clear
1:55 AM 68.0 °F - 60.8 °F 78% 30.10 in 10.0 mi ESE 3.5 mph - N/A   Clear
2:15 AM 68.0 °F - 60.8 °F 78% 30.09 in 10.0 mi ESE 3.5 mph - N/A   Clear
2:35 AM 68.0 °F - 60.8 °F 78% 30.09 in 10.0 mi ESE 3.5 mph - N/A   Clear
2:55 AM 68.0 °F - 60.8 °F 78% 30.09 in 10.0 mi Calm Calm - N/A   Clear
3:15 AM 68.0 °F - 60.8 °F 78% 30.09 in 10.0 mi Calm Calm - N/A   Clear
3:35 AM 66.2 °F - 60.8 °F 83% 30.09 in 10.0 mi ESE 3.5 mph - N/A   Clear
3:55 AM 66.2 °F - 60.8 °F 83% 30.09 in 10.0 mi ESE 3.5 mph - N/A   Clear
4:15 AM 66.2 °F - 60.8 °F 83% 30.09 in 10.0 mi ESE 3.5 mph - N/A   Clear
4:35 AM 66.2 °F - 59.0 °F 78% 30.09 in 10.0 mi ESE 4.6 mph - N/A   Partly Cloudy
5:00 AM 66.2 °F - 60.8 °F 83% 30.10 in 10.0 mi SE 3.5 mph - N/A   Overcast
5:30 AM 66.2 °F - 59.0 °F 78% 30.10 in 10.0 mi SE 4.6 mph - N/A   Clear
5:50 AM 66.2 °F - 59.0 °F 78% 30.10 in 10.0 mi SE 4.6 mph - N/A   Clear
6:50 AM 66.2 °F - 60.8 °F 83% 30.10 in 10.0 mi ESE 4.6 mph - N/A   Clear
7:50 AM 68.0 °F - 62.6 °F 83% 30.12 in 10.0 mi ESE 3.5 mph - N/A   Clear
8:50 AM 73.4 °F - 64.4 °F 73% 30.13 in 10.0 mi South 4.6 mph - N/A   Clear
9:50 AM 80.6 °F 83.2 °F 68.0 °F 65% 30.13 in 10.0 mi SSW 9.2 mph - N/A   Clear
10:50 AM 84.2 °F 87.3 °F 68.0 °F 58% 30.12 in 10.0 mi SSW 10.4 mph - N/A   Partly Cloudy
11:50 AM 87.8 °F 90.4 °F 66.2 °F 49% 30.10 in 10.0 mi South 9.2 mph 20.7 mph N/A   Scattered Clouds
12:50 PM 86.0 °F 87.3 °F 64.4 °F 48% 30.08 in 10.0 mi SW 16.1 mph - N/A   Mostly Cloudy
1:50 PM 86.0 °F 88.2 °F 66.2 °F 51% 30.05 in 10.0 mi SW 13.8 mph - N/A   Mostly Cloudy
2:50 PM 87.8 °F 89.4 °F 64.4 °F 46% 30.03 in 10.0 mi SW 11.5 mph - N/A   Mostly Cloudy
3:50 PM 89.6 °F 91.1 °F 64.4 °F 43% 30.01 in 10.0 mi SSW 12.7 mph - N/A   Scattered Clouds
4:50 PM 87.8 °F 89.4 °F 64.4 °F 46% 30.02 in 10.0 mi SSW 11.5 mph 18.4 mph N/A   Mostly Cloudy
6:55 PM 82.4 °F 83.9 °F 64.4 °F 54% 30.01 in 10.0 mi Variable 3.5 mph - N/A   Scattered Clouds
7:15 PM 80.6 °F 82.3 °F 64.4 °F 58% 30.01 in 10.0 mi SSE 4.6 mph - N/A   Scattered Clouds
7:35 PM 78.8 °F - 64.4 °F 61% 30.01 in 10.0 mi SSE 5.8 mph - N/A   Clear
7:55 PM 78.8 °F - 64.4 °F 61% 30.02 in 10.0 mi SSE 4.6 mph - N/A   Clear
8:15 PM 78.8 °F - 64.4 °F 61% 30.01 in 10.0 mi SE 5.8 mph - N/A   Clear
8:35 PM 77.0 °F - 64.4 °F 65% 30.02 in 10.0 mi SE 4.6 mph - N/A   Clear
8:55 PM 77.0 °F - 64.4 °F 65% 30.03 in 10.0 mi SE 3.5 mph - N/A   Clear
9:15 PM 77.0 °F - 64.4 °F 65% 30.02 in 10.0 mi SE 4.6 mph - N/A   Clear
9:35 PM 75.2 °F - 64.4 °F 69% 30.03 in 10.0 mi SSE 4.6 mph - N/A   Clear
9:55 PM 77.0 °F - 66.2 °F 69% 30.03 in 10.0 mi SSE 4.6 mph - N/A   Clear
10:15 PM 77.0 °F - 66.2 °F 69% 30.03 in 10.0 mi SSE 4.6 mph - N/A   Clear
10:35 PM 77.0 °F - 64.4 °F 65% 30.03 in 10.0 mi SSE 4.6 mph - N/A   Clear
10:55 PM 75.2 °F - 64.4 °F 69% 30.03 in 10.0 mi SSE 4.6 mph - N/A   Clear
11:15 PM 75.2 °F - 64.4 °F 69% 30.03 in 10.0 mi SSE 4.6 mph - N/A   Clear
11:35 PM 75.2 °F - 64.4 °F 69% 30.03 in 10.0 mi SSE 4.6 mph - N/A   Clear
11:55 PM 75.2 °F - 64.4 °F 69% 30.02 in 10.0 mi SSE 4.6 mph - N/A   Clear